sat.trackr.live / text

‹ back to catalog

STARLINK-3044

NORAD 49438 · 2021-104AG

PAYLOAD ACTIVE UNKNOWN

§ Identity

Operator
Country
US
Launch date
2021-11-13
Launch site
AFETR
Launch vehicle
Mass (kg)
RCS (m²)

Purposes: comms

External: N2YO · Heavens-Above · Gunter

§ Orbital elements

Epoch: 2026-09-20T00:28:51.596832Z

Period
93.83 min
Inclination
53.1614°
Eccentricity
0.0001124
Mean motion
15.34704185 rev/d
Perigee alt
461.0 km
Apogee alt
462.6 km
Semi-major
6,839.9 km
B*
-1.8604e-3
RAAN
51.6717°
Arg perigee
64.2065°
Mean anomaly
295.9054°
Rev number
26,831

§ Raw data

STARLINK-30441 49438U 21104AG  26263.02004163 -.00063314  00000+0 -18604-2 0  99902 49438  53.1614  51.6717 0001124  64.2065 295.9054 15.34704185268310

JSON: /api/v1/satellites/49438 · /tle

For live sub-satellite position, see the globe view (requires WebGL).

§ Visibility from observer

Set your observer location to see the next 7 days of passes ≥ 10°. The values pass through the URL so the page stays shareable.

No JS? Fill the form by hand. The geolocation button needs JavaScript.